FW2738 Weather Reports


time (UTC)temp
C
wind
direction
speed
KPH
gust
KPH
rain 1hr
cm
rain 24hr
cm
rain mn
cm
humidity
%
barometer
mb
20260506091511 11 5 11.3 22.5 0.00 0.00 0.00 80 1008.8
20260506090007 11 355 16.1 25.7 0.00 0.00 0.00 79 1008.7
20260506084506 11 328 17.7 24.1 0.00 0.00 0.00 79 1008.6
20260506083008 11 20 14.5 20.9 0.00 0.00 0.00 79 1008.7
20260506081503 11 360 16.1 24.1 0.00 0.00 0.00 78 1008.5
20260506073100 12 344 20.9 29.0 0.00 0.00 0.00 77 1008.4
20260506071559 12 342 12.9 20.9 0.00 0.00 0.00 77 1008.3
20260506061552 12 345 19.3 27.4 0.00 0.00 0.00 78 1008.5
20260506060109 12 342 14.5 24.1 0.00 0.00 0.00 79 1008.5
20260506044543 13 333 20.9 32.2 0.00 0.00 0.00 79 1008.2
20260506043040 14 360 12.9 27.4 0.00 0.00 0.00 80 1008.1
20260506041536 14 11 25.7 33.8 0.00 0.00 0.00 79 1008.0
20260506040033 14 321 20.9 30.6 0.00 0.00 0.00 80 1007.7
20260506034529 15 338 19.3 24.1 0.00 0.00 0.00 81 1007.8
20260506033027 15 20 16.1 27.4 0.00 0.00 0.00 81 1007.5
20260506031526 15 355 20.9 32.2 0.00 0.00 0.00 80 1007.2
20260506030029 15 5 22.5 32.2 0.00 0.00 0.00 80 1007.1
20260506024534 16 355 19.3 30.6 0.00 0.00 0.00 80 1006.5
20260506023014 17 19 14.5 29.0 0.00 0.00 0.00 79 1005.9
20260506021510 18 341 16.1 25.7 0.00 0.00 0.00 78 1005.8
20260506020007 19 22 14.5 20.9 0.00 0.00 0.00 78 1005.2
20260506014504 19 339 16.1 27.4 0.00 0.00 0.00 77 1005.2
20260506013101 20 349 14.5 27.4 0.00 0.00 0.00 76 1004.9
20260506011557 20 347 17.7 24.1 0.00 0.00 0.00 76 1004.2
20260506010055 21 341 14.5 22.5 0.00 0.00 0.00 76 1004.3
20260506004555 21 332 12.9 24.1 0.00 0.00 0.00 75 1004.3
20260506003053 22 325 16.1 20.9 0.00 0.00 0.00 73 1004.1
20260506001556 23 305 17.7 25.7 0.00 0.00 0.00 70 1003.6
20260506000053 24 331 16.1 24.1 0.00 0.00 0.00 70 1003.8
20260505234554 25 309 16.1 24.1 0.00 0.00 0.00 65 1003.2
20260505233050 26 317 22.5 29.0 0.00 0.00 0.00 60 1003.4
20260505231600 27 311 11.3 20.9 0.00 0.00 0.00 56 1002.8
20260505230057 27 317 12.9 25.7 0.00 0.00 0.00 54 1002.4
20260505224552 29 290 14.5 22.5 0.00 0.00 0.00 59 1002.5
20260505223048 30 194 9.7 16.1 0.00 0.00 0.00 59 1001.9
20260505221548 30 180 9.7 16.1 0.00 0.00 0.00 55 1001.7
20260505220047 30 264 9.7 22.5 0.00 0.00 0.00 55 1001.7
20260505214545 30 176 9.7 22.5 0.00 0.00 0.00 59 1002.1
20260505213052 30 225 17.7 27.4 0.00 0.00 0.00 60 1002.1
20260505211544 30 172 8.0 25.7 0.00 0.00 0.00 63 1002.2
20260505210039 29 188 16.1 22.5 0.00 0.00 0.00 65 1002.3
20260505204539 29 164 12.9 27.4 0.00 0.00 0.00 66 1002.3
20260505203036 28 202 17.7 27.4 0.00 0.00 0.00 68 1002.7
20260505201538 28 199 16.1 32.2 0.00 0.00 0.00 68 1002.8
20260505200036 28 161 16.1 38.6 0.00 0.00 0.00 67 1002.8
20260505194534 28 199 17.7 35.4 0.00 0.00 0.00 68 1003.0
20260505193033 28 165 22.5 33.8 0.00 0.00 0.00 66 1002.9
20260505191533 28 186 16.1 33.8 0.00 0.00 0.00 69 1002.6
20260505190029 27 202 20.9 33.8 0.00 0.00 0.00 68 1002.8
20260505184528 27 171 19.3 33.8 0.00 0.00 0.00 68 1002.9
20260505183034 27 209 22.5 38.6 0.00 0.00 0.00 68 1003.0
20260505181526 27 194 22.5 41.8 0.00 0.00 0.00 69 1003.2
20260505180042 27 217 19.3 40.2 0.00 0.00 0.00 69 1002.8
20260505174522 26 217 20.9 43.5 0.00 0.00 0.00 72 1002.9
20260505173019 26 171 25.7 40.2 0.00 0.00 0.00 74 1002.8
20260505171515 25 167 19.3 35.4 0.00 0.00 0.00 77 1003.4
20260505170015 24 168 17.7 33.8 0.00 0.00 0.00 78 1002.8
20260505164514 24 200 20.9 38.6 0.00 0.00 0.00 78 1002.7
20260505163013 24 190 30.6 46.7 0.00 0.00 0.00 77 1003.6
20260505161513 25 200 27.4 43.5 0.00 0.00 0.00 77 1002.9
20260505153010 23 189 22.5 43.5 0.00 0.00 0.00 80 1003.0
20260505151503 23 172 27.4 40.2 0.00 0.00 0.00 80 1003.0
20260505124551 21 173 17.7 40.2 0.00 0.00 0.00 85 1002.6
20260505123053 21 192 22.5 35.4 0.00 0.00 0.00 86 1002.5
20260505121549 21 173 22.5 33.8 0.00 0.00 0.00 85 1002.5
20260505120051 21 175 20.9 35.4 0.00 0.00 0.00 85 1002.4
20260505114550 21 180 22.5 37.0 0.00 0.00 0.00 85 1002.3
20260505113051 21 180 22.5 32.2 0.00 0.00 0.00 85 1002.3
20260505111545 21 198 20.9 35.4 0.00 0.00 0.00 84 1002.2
20260505101559 21 157 20.9 38.6 0.00 0.00 0.00 85 1002.2
20260505100057 21 198 20.9 35.4 0.00 0.00 0.00 85 1002.3
20260505094539 21 210 25.7 37.0 0.00 0.00 0.00 85 1002.3
20260505093038 21 198 25.7 40.2 0.00 0.00 0.00 85 1002.6